SES-19

Last updated on Sun Jun 21 2026 00:03:09 GMT+0000 (Coordinated Universal Time)

1 55971U 23038B 26171.35044763 .00000083 00000+0 00000+0 0 9991 2 55971 0.0305 294.0186 0001709 159.7518 166.0491 1.00270933 12128
UTC large
Height (km)
Speed (km/s)
/
Latitude / Longitude
Inclination (degrees)
Orbital Period (minutes)
Azimuth
Elevation
Range (km)
Doppler Factor

Next 0 passes for location: London (51.5072 / 0.1276)

No passes found over London.
SES-19